Total_Precipitation_Accumulation
0.01 0.02 0.06 0.21 0.40 0.54 0.56 0.51 0.56 0.67 0.72 0.71 0.69 0.80 0.87 0.88 1.36 2.58 1.91 1.17 0.92 0.77 0.62 0.63 0.71 0.67 0.57 0.51 0.52 0.51 0.49 0.50 0.49 0.42 0.40 0.48 0.52 0.58 0.72 0.82 1.07 1.36 1.56 1.74 1.79 1.96 1.90 1.87 1.92
0.01 0.03 0.08 0.21 0.45 0.60 0.61 0.52 0.65 0.74 0.75 0.67 0.63 0.68 0.75 0.85 0.85 1.00 1.17 0.88 0.70 0.72 0.81 0.78 0.78 0.73 0.58 0.52 0.53 0.54 0.50 0.47 0.45 0.42 0.39 0.45 0.54 0.63 0.74 0.81 0.99 1.43 1.72 1.80 1.75 1.85 1.89 1.88 1.97
0.02 0.06 0.12 0.21 0.40 0.51 0.61 0.57 0.66 0.77 0.77 0.69 0.75 0.87 1.01 0.97 0.96 0.93 0.96 0.78 0.64 0.63 0.72 0.91 0.87 0.77 0.66 0.59 0.60 0.58 0.54 0.48 0.48 0.48 0.47 0.54 0.64 0.66 0.74 0.89 1.01 1.30 1.66 1.86 1.86 1.79 1.87 1.84 1.87
0.03 0.06 0.12 0.20 0.29 0.29 0.34 0.45 0.58 0.75 0.81 0.70 0.75 1.07 1.16 0.90 0.91 0.87 0.86 0.76 0.61 0.68 0.68 0.78 0.85 0.85 0.80 0.73 0.69 0.66 0.57 0.53 0.54 0.55 0.57 0.63 0.71 0.76 0.82 1.07 1.30 1.43 1.65 1.74 1.71 1.70 1.80 1.73 1.66
0.05 0.09 0.16 0.23 0.25 0.24 0.24 0.35 0.56 0.69 0.75 0.70 0.75 1.07 1.40 1.19 0.95 0.87 0.78 0.64 0.59 0.74 0.89 0.77 0.79 0.85 0.85 0.83 0.77 0.74 0.66 0.65 0.65 0.65 0.67 0.71 0.79 0.89 0.93 1.16 1.49 1.73 1.86 1.81 1.73 1.65 1.60 1.50 1.49
0.06 0.10 0.20 0.28 0.23 0.20 0.22 0.25 0.43 0.68 0.77 0.81 0.87 1.26 1.80 1.71 1.25 0.92 0.88 0.75 0.71 0.78 0.86 0.83 0.81 0.84 0.85 0.91 0.95 0.92 0.83 0.80 0.77 0.80 0.79 0.72 0.72 0.82 1.01 1.23 1.49 1.75 1.93 1.88 1.72 1.66 1.55 1.49 1.58
0.08 0.11 0.19 0.26 0.24 0.21 0.23 0.27 0.42 0.59 0.72 0.81 0.86 1.37 1.78 1.71 1.46 1.18 1.07 0.94 0.89 0.88 1.00 1.02 1.08 1.07 1.11 1.20 1.19 1.13 1.05 1.01 0.94 0.89 0.83 0.78 0.76 0.86 1.00 1.28 1.52 1.74 1.92 1.90 1.71 1.66 1.63 1.66 1.79
0.09 0.11 0.14 0.19 0.20 0.24 0.27 0.31 0.41 0.53 0.74 0.76 0.89 1.34 1.78 1.81 1.64 1.68 1.67 1.52 1.38 1.36 1.46 1.49 1.56 1.53 1.42 1.37 1.32 1.26 1.19 1.15 1.07 0.96 0.90 0.91 0.95 1.06 1.22 1.26 1.51 1.78 1.92 1.89 1.85 1.82 1.80 1.93 2.06
0.08 0.10 0.15 0.15 0.17 0.23 0.29 0.37 0.42 0.51 0.67 0.93 0.93 1.07 1.49 1.67 1.79 1.93 2.06 1.95 2.00 2.04 2.03 1.91 1.90 1.83 1.80 1.66 1.42 1.50 1.41 1.36 1.30 1.22 1.15 1.22 1.35 1.53 1.63 1.49 1.78 2.04 2.10 2.05 2.10 2.12 2.12 2.30 2.43
0.12 0.15 0.15 0.12 0.14 0.22 0.29 0.36 0.39 0.54 0.73 1.07 1.14 1.20 1.47 1.70 2.11 2.33 2.27 2.22 2.32 2.59 2.47 2.17 2.25 2.24 2.12 1.97 1.95 1.97 1.80 1.83 1.84 1.85 1.61 1.76 2.15 2.26 1.95 2.15 2.33 2.65 2.60 2.39 2.42 2.38 2.29 2.31 2.36
0.12 0.16 0.12 0.15 0.20 0.25 0.32 0.40 0.45 0.60 1.01 1.28 1.40 1.57 1.72 2.00 2.29 2.53 2.58 2.58 2.60 2.65 2.45 2.51 2.71 2.59 2.62 2.84 2.87 2.63 2.50 2.55 2.44 2.47 2.30 2.39 2.44 2.35 2.38 2.61 2.79 3.11 3.18 3.03 2.91 2.66 2.37 2.35 2.49
0.10 0.11 0.13 0.19 0.26 0.30 0.39 0.50 0.63 0.70 0.99 1.31 1.43 1.78 2.15 2.47 2.56 2.71 2.84 2.77 3.02 2.98 2.67 2.73 2.76 2.80 2.93 3.09 3.28 3.38 3.11 3.08 2.97 2.94 2.74 2.87 2.99 3.03 3.02 3.28 3.48 3.79 4.03 4.06 3.59 3.13 2.95 2.72 2.62
0.07 0.09 0.15 0.26 0.32 0.35 0.48 0.63 0.70 0.80 0.94 1.18 1.46 1.74 1.87 2.17 2.57 3.19 3.25 3.41 3.66 3.53 3.24 3.12 3.25 3.09 3.06 3.37 3.64 3.55 3.59 3.46 3.59 3.60 3.28 3.38 3.39 3.44 3.71 3.82 4.15 4.23 4.39 4.44 4.14 3.49 3.22 3.08 2.83
0.08 0.13 0.20 0.26 0.35 0.44 0.54 0.67 0.71 0.91 1.11 1.23 1.36 1.60 1.90 2.12 2.33 2.87 3.36 3.57 3.81 3.91 3.78 3.58 3.49 3.44 3.35 3.59 3.96 4.11 3.94 3.91 3.87 4.01 3.82 3.74 3.79 3.96 4.11 4.18 4.48 4.40 4.24 4.40 4.26 3.76 3.49 3.27 3.11
0.09 0.17 0.27 0.30 0.32 0.40 0.47 0.73 0.74 0.85 1.17 1.42 1.45 1.60 1.92 2.32 2.61 2.98 3.39 3.79 4.09 4.13 3.95 3.93 3.67 3.90 4.04 4.29 4.38 4.53 4.68 4.61 4.41 4.34 4.39 4.28 4.35 4.54 4.46 4.64 4.80 4.65 4.42 4.48 4.42 4.24 3.84 3.62 3.50
0.15 0.26 0.41 0.39 0.35 0.33 0.49 0.93 0.97 0.93 1.23 1.42 1.59 1.80 2.04 2.35 2.71 3.07 3.36 3.65 4.00 4.11 4.15 4.28 4.00 4.10 4.41 4.49 4.57 4.83 5.20 5.27 5.03 4.80 4.79 4.68 4.86 5.02 5.13 5.05 4.91 4.78 4.59 4.58 4.74 4.53 4.17 4.02 3.99
0.21 0.30 0.42 0.45 0.39 0.38 0.52 0.88 0.98 0.96 1.19 1.34 1.43 1.63 1.85 2.17 2.56 2.93 3.32 3.65 3.91 4.06 4.08 4.31 4.52 4.39 4.67 4.83 4.93 5.21 5.54 5.72 5.53 5.31 5.13 5.15 5.17 5.11 5.29 5.36 5.30 5.07 4.99 4.95 4.59 4.60 4.44 4.41 4.27
0.23 0.24 0.33 0.39 0.39 0.40 0.51 0.75 0.95 0.97 1.22 1.30 1.50 1.52 1.71 2.06 2.47 2.83 3.30 3.73 3.91 4.18 4.31 4.43 4.78 4.84 5.16 5.31 5.19 5.43 5.63 5.67 5.61 5.57 5.51 5.63 5.72 5.52 5.57 5.51 5.45 5.34 5.33 5.27 5.09 4.99 4.89 4.63 4.42
0.22 0.21 0.29 0.35 0.39 0.44 0.58 0.84 1.06 1.15 1.29 1.41 1.64 1.74 2.04 2.20 2.45 2.82 3.27 3.69 4.25 4.46 4.56 4.57 4.75 5.05 5.24 5.38 5.44 5.87 5.93 5.73 5.93 6.18 6.06 6.21 6.29 6.03 5.95 5.86 5.79 5.52 5.39 5.34 5.26 5.08 4.94 4.64 4.46
0.24 0.22 0.31 0.43 0.49 0.56 0.68 0.91 1.14 1.27 1.28 1.58 1.88 1.99 2.48 2.66 2.60 2.83 3.43 3.81 4.21 4.51 4.68 4.94 5.06 5.14 5.28 5.74 6.24 6.67 7.06 7.00 6.89 7.06 7.13 6.87 6.77 6.68 6.42 6.50 6.25 5.84 5.62 5.36 5.15 4.98 4.72 4.38 4.36
0.22 0.27 0.37 0.52 0.53 0.65 0.84 1.35 1.48 1.42 1.48 1.74 2.04 2.25 2.64 2.78 2.94 2.94 3.12 3.48 3.90 4.28 4.55 4.79 5.10 5.50 6.05 6.71 7.21 7.52 7.95 8.11 7.84 7.54 7.40 7.14 6.94 6.77 6.43 6.27 6.20 5.88 5.32 5.14 4.97 4.73 4.59 4.37 4.26
0.18 0.21 0.30 0.38 0.50 0.76 0.88 1.69 1.86 1.73 1.81 1.93 2.16 2.29 2.58 2.49 2.73 2.97 3.03 3.24 3.57 3.86 4.23 4.68 5.10 5.73 6.65 7.36 7.82 8.27 8.49 8.55 8.36 8.02 7.57 7.18 6.77 6.38 6.05 5.86 5.57 5.32 4.99 4.85 4.46 4.36 4.43 4.44 4.18
0.12 0.14 0.22 0.27 0.39 0.64 0.77 1.46 1.93 1.86 2.06 2.14 2.35 2.44 2.46 2.51 2.53 2.68 2.75 2.93 3.29 3.64 4.01 4.46 4.95 5.69 6.45 7.09 7.72 8.29 8.50 8.50 8.22 7.75 7.16 6.65 6.19 5.77 5.36 5.14 4.85 4.57 4.35 4.16 3.89 3.86 3.94 4.06 3.99
0.11 0.17 0.27 0.34 0.57 0.92 0.77 1.24 2.03 2.21 2.33 2.43 2.39 2.50 2.74 2.68 2.52 2.52 2.56 2.70 2.94 3.31 3.69 4.19 4.65 5.19 5.82 6.28 6.89 7.37 7.61 7.56 7.15 6.57 5.94 5.53 5.27 5.02 4.75 4.49 4.23 3.87 3.68 3.50 3.36 3.26 3.24 3.41 3.51
0.13 0.29 0.70 0.92 1.04 1.07 0.78 1.31 2.21 2.39 2.32 2.42 2.57 2.73 2.86 2.87 2.70 2.63 2.65 2.65 2.79 3.09 3.52 3.89 4.09 4.53 4.80 5.12 5.62 6.00 6.08 5.99 5.67 5.37 5.13 4.72 4.24 3.87 3.76 3.60 3.41 3.16 3.07 3.02 3.04 3.02 2.96 3.02 3.11
0.16 0.29 0.77 1.18 1.12 1.08 1.15 1.90 2.58 2.51 2.30 2.24 2.37 2.47 2.55 2.49 2.45 2.45 2.48 2.61 2.75 2.82 3.09 3.37 3.37 3.54 3.79 3.98 4.21 4.36 4.41 4.44 4.43 4.32 3.98 3.61 3.17 2.83 2.81 2.83 2.62 2.55 2.56 2.54 2.69 2.70 2.69 2.76 2.76
0.18 0.26 0.36 0.65 0.77 1.18 1.74 2.35 2.84 2.60 2.53 2.38 2.16 2.00 2.19 2.29 2.30 2.35 2.42 2.57 2.66 2.63 2.61 2.73 2.80 2.85 2.95 3.02 3.17 3.28 3.34 3.50 3.50 3.41 3.21 2.95 2.75 2.47 2.36 2.33 2.31 2.33 2.40 2.40 2.46 2.45 2.36 2.48 2.50
0.17 0.24 0.38 0.70 1.25 1.61 1.97 2.62 3.24 3.20 3.12 3.01 2.63 2.22 2.23 2.31 2.40 2.41 2.36 2.35 2.46 2.36 2.33 2.45 2.55 2.54 2.54 2.48 2.47 2.41 2.60 2.74 2.81 2.73 2.53 2.49 2.48 2.39 2.33 2.22 2.18 2.16 2.12 2.14 2.30 2.26 2.17 2.21 2.21
0.23 0.30 0.43 0.74 1.02 1.62 2.34 3.05 2.97 3.26 3.38 3.23 2.83 2.35 2.30 2.33 2.43 2.43 2.46 2.32 2.27 2.28 2.29 2.21 2.24 2.25 2.19 2.16 2.21 2.13 2.11 2.14 2.15 2.03 1.94 1.99 2.04 2.08 2.06 1.91 1.88 1.82 1.78 1.83 1.99 2.03 2.04 2.02 2.03
0.28 0.34 0.46 0.97 1.11 1.26 2.07 3.05 2.86 3.19 3.36 3.20 3.04 2.68 2.45 2.52 2.51 2.41 2.46 2.44 2.28 2.12 2.11 2.05 2.04 2.05 2.04 2.03 2.04 1.90 1.82 1.82 1.84 1.82 1.74 1.73 1.79 1.78 1.77 1.73 1.61 1.50 1.55 1.71 1.77 1.73 1.77 1.84 1.83